Location: Bernay
(48.6766°N, 2.9386°E)
Time: 00:30:03
(UTC+00:00)

SJ 16-02 - Pass Details

Date: 24 April 2026
Orbit: 582 x 592 km, 75.0° (Epoch: 19 May)

Event Time Altitude Azimuth Distance (km) Brightness Sun altitude
Rises 21:48:52 0° 336° (NNW) 2,823 6.2 -23.0°
Reaches altitude 10° 21:51:06 10° 335° (NNW) 1,916 5.0 -23.2°
Maximum altitude 21:55:21 72° 252° (WSW) 618 1.2 -23.5°
Enters shadow 21:55:24 72° 245° (WSW) 618 1.2 -23.5°
